• In Deutschland
  • Länderverzeichnis
  • Für 7 Tage
  • Wassertemperatur
  • Satellitenkarten
  • Wetterkarte
  • Widgets
  • user-avatar
    Anmelden

    Stündliche Wetter Itapicuru

    Heute, 23 Juni, Samstag

    Zeit Temperatur Niederschläge Wind Luftdruck Luftfeuchtigkeit
    00:00 +21°C° 0 mm 1 m/S 753 mmHg 96%
    01:00 +21°C° 0 mm 1 m/S 753 mmHg 96%
    02:00 +21°C° 0 mm 1 m/S 753 mmHg 96%
    03:00 +21°C° 0 mm 1 m/S 752 mmHg 96%
    04:00 +21°C° 0 mm 1 m/S 753 mmHg 96%
    05:00 +21°C° 0 mm 1 m/S 753 mmHg 96%
    06:00 +19°C° 0 mm 0 m/S 753 mmHg 96%
    07:00 +23°C° 0 mm 1 m/S 753 mmHg 87%
    08:00 +25°C° 0 mm 3 m/S 753 mmHg 78%
    09:00 +28°C° 0 mm 4 m/S 753 mmHg 69%
    10:00 +28°C° 0 mm 4 m/S 753 mmHg 65%
    11:00 +29°C° 0 mm 4 m/S 753 mmHg 62%
    12:00 +30°C° 0 mm 5 m/S 753 mmHg 58%
    13:00 +30°C° 0 mm 5 m/S 752 mmHg 58%
    14:00 +30°C° 0 mm 5 m/S 752 mmHg 58%
    15:00 +30°C° 0 mm 5 m/S 752 mmHg 58%
    16:00 +28°C° 0 mm 4 m/S 752 mmHg 66%
    17:00 +26°C° 0 mm 3 m/S 752 mmHg 74%
    18:00 +24°C° 0 mm 3 m/S 752 mmHg 83%
    19:00 +23°C° 0 mm 2 m/S 752 mmHg 86%
    20:00 +23°C° 0 mm 2 m/S 753 mmHg 90%
    21:00 +21°C° 0 mm 2 m/S 753 mmHg 93%
    22:00 +21°C° 0 mm 2 m/S 753 mmHg 94%
    23:00 +21°C° 0 mm 2 m/S 753 mmHg 94%

    Morgen, 24 Juni, Sonntag

    Zeit Temperatur Niederschläge Wind Luftdruck Luftfeuchtigkeit
    00:00 +22°C° 0 mm 1 m/S 754 mmHg 95%
    01:00 +22°C° 0 mm 1 m/S 753 mmHg 95%
    02:00 +22°C° 0 mm 1 m/S 753 mmHg 95%
    03:00 +20°C° 0 mm 2 m/S 752 mmHg 95%
    04:00 +20°C° 0 mm 2 m/S 753 mmHg 95%
    05:00 +20°C° 0 mm 2 m/S 753 mmHg 95%
    06:00 +20°C° 0 mm 2 m/S 753 mmHg 95%
    07:00 +23°C° 0 mm 2 m/S 753 mmHg 86%
    08:00 +25°C° 0 mm 3 m/S 754 mmHg 77%
    09:00 +27°C° 0 mm 4 m/S 754 mmHg 68%
    10:00 +28°C° 0 mm 4 m/S 754 mmHg 60%
    11:00 +29°C° 0 mm 4 m/S 753 mmHg 53%
    12:00 +30°C° 0 mm 5 m/S 753 mmHg 46%
    13:00 +30°C° 0 mm 5 m/S 753 mmHg 47%
    14:00 +30°C° 0 mm 5 m/S 752 mmHg 48%
    15:00 +30°C° 0 mm 5 m/S 751 mmHg 49%
    16:00 +28°C° 0 mm 4 m/S 752 mmHg 59%
    17:00 +26°C° 0 mm 4 m/S 752 mmHg 70%
    18:00 +22°C° 0 mm 3 m/S 752 mmHg 81%
    19:00 +23°C° 0 mm 2 m/S 752 mmHg 85%
    20:00 +21°C° 0 mm 2 m/S 753 mmHg 90%
    21:00 +21°C° 0 mm 2 m/S 753 mmHg 94%
    22:00 +20°C° 0 mm 2 m/S 753 mmHg 95%
    23:00 +21°C° 0 mm 1 m/S 753 mmHg 95%

    übermorgen, 25 Juni, Montag

    Zeit Temperatur Niederschläge Wind Luftdruck Luftfeuchtigkeit
    00:00 +21°C° 0 mm 1 m/S 753 mmHg 95%
    01:00 +21°C° 0 mm 1 m/S 753 mmHg 95%
    02:00 +21°C° 0 mm 1 m/S 752 mmHg 95%
    03:00 +20°C° 0 mm 1 m/S 752 mmHg 95%
    04:00 +20°C° 0 mm 1 m/S 752 mmHg 95%
    05:00 +20°C° 0 mm 1 m/S 752 mmHg 95%
    06:00 +20°C° 0 mm 1 m/S 752 mmHg 95%
    07:00 +23°C° 0 mm 2 m/S 753 mmHg 87%
    08:00 +25°C° 0 mm 3 m/S 753 mmHg 78%
    09:00 +27°C° 0 mm 4 m/S 754 mmHg 69%
    10:00 +28°C° 0,1 mm 4 m/S 753 mmHg 64%
    11:00 +29°C° 0,1 mm 5 m/S 753 mmHg 60%
    12:00 +30°C° 0,1 mm 5 m/S 753 mmHg 55%
    13:00 +30°C° 0,3 mm 5 m/S 752 mmHg 60%
    14:00 +29°C° 0,3 mm 5 m/S 751 mmHg 65%
    15:00 +28°C° 0,3 mm 5 m/S 751 mmHg 70%
    16:00 +26°C° 0,1 mm 4 m/S 751 mmHg 76%
    17:00 +25°C° 0,1 mm 3 m/S 751 mmHg 81%
    18:00 +22°C° 0,1 mm 3 m/S 752 mmHg 87%
    19:00 +23°C° 0 mm 2 m/S 752 mmHg 89%
    20:00 +21°C° 0 mm 2 m/S 752 mmHg 90%
    21:00 +20°C° 0 mm 2 m/S 753 mmHg 92%
    22:00 +21°C° 0 mm 1 m/S 753 mmHg 93%
    23:00 +21°C° 0 mm 1 m/S 752 mmHg 93%

    26 Juni, Dienstag

    Zeit Temperatur Niederschläge Wind Luftdruck Luftfeuchtigkeit
    00:00 +21°C° 0 mm 1 m/S 752 mmHg 94%
    01:00 +21°C° 0 mm 1 m/S 752 mmHg 94%
    02:00 +21°C° 0 mm 1 m/S 751 mmHg 94%
    03:00 +21°C° 0 mm 1 m/S 751 mmHg 95%
    04:00 +21°C° 0,1 mm 1 m/S 751 mmHg 95%
    05:00 +21°C° 0,1 mm 1 m/S 751 mmHg 95%
    06:00 +22°C° 0,1 mm 1 m/S 752 mmHg 94%
    07:00 +23°C° 0,2 mm 1 m/S 752 mmHg 90%
    08:00 +24°C° 0,2 mm 1 m/S 753 mmHg 85%
    09:00 +26°C° 0,2 mm 2 m/S 753 mmHg 80%
    10:00 +27°C° 0,2 mm 2 m/S 753 mmHg 74%
    11:00 +28°C° 0,2 mm 3 m/S 753 mmHg 68%
    12:00 +29°C° 0,2 mm 3 m/S 752 mmHg 63%
    13:00 +29°C° 0,1 mm 4 m/S 752 mmHg 62%
    14:00 +29°C° 0,1 mm 4 m/S 751 mmHg 61%
    15:00 +30°C° 0,1 mm 4 m/S 751 mmHg 59%
    16:00 +28°C° 0 mm 4 m/S 751 mmHg 68%
    17:00 +26°C° 0 mm 3 m/S 751 mmHg 76%
    18:00 +24°C° 0 mm 3 m/S 751 mmHg 85%
    19:00 +23°C° 0 mm 2 m/S 752 mmHg 88%
    20:00 +23°C° 0 mm 2 m/S 752 mmHg 92%
    21:00 +21°C° 0 mm 2 m/S 753 mmHg 95%
    22:00 +22°C° 0 mm 1 m/S 753 mmHg 95%
    23:00 +22°C° 0 mm 1 m/S 752 mmHg 95%

    27 Juni, Mittwoch

    Zeit Temperatur Niederschläge Wind Luftdruck Luftfeuchtigkeit
    00:00 +22°C° 0 mm 1 m/S 752 mmHg 96%
    01:00 +22°C° 0 mm 1 m/S 752 mmHg 96%
    02:00 +22°C° 0 mm 1 m/S 752 mmHg 96%
    03:00 +22°C° 0 mm 1 m/S 751 mmHg 96%
    04:00 +22°C° 0 mm 1 m/S 752 mmHg 96%
    05:00 +21°C° 0 mm 1 m/S 752 mmHg 96%
    06:00 +21°C° 0 mm 1 m/S 752 mmHg 96%
    07:00 +23°C° 0 mm 2 m/S 753 mmHg 88%
    08:00 +25°C° 0 mm 2 m/S 753 mmHg 81%
    09:00 +27°C° 0 mm 3 m/S 754 mmHg 73%
    10:00 +28°C° 0 mm 3 m/S 753 mmHg 67%
    11:00 +29°C° 0 mm 3 m/S 753 mmHg 60%
    12:00 +30°C° 0 mm 3 m/S 752 mmHg 54%
    13:00 +30°C° 0 mm 4 m/S 752 mmHg 55%
    14:00 +30°C° 0 mm 4 m/S 751 mmHg 55%
    15:00 +30°C° 0 mm 4 m/S 751 mmHg 56%
    16:00 +28°C° 0 mm 4 m/S 751 mmHg 65%
    17:00 +26°C° 0 mm 4 m/S 752 mmHg 73%
    18:00 +24°C° 0 mm 3 m/S 752 mmHg 82%
    19:00 +24°C° 0 mm 3 m/S 752 mmHg 86%
    20:00 +23°C° 0 mm 2 m/S 753 mmHg 90%
    21:00 +21°C° 0 mm 2 m/S 753 mmHg 94%
    22:00 +21°C° 0 mm 2 m/S 753 mmHg 94%
    23:00 +20°C° 0 mm 2 m/S 753 mmHg 95%

    28 Juni, Donnerstag

    Zeit Temperatur Niederschläge Wind Luftdruck Luftfeuchtigkeit
    00:00 +21°C° 0 mm 1 m/S 753 mmHg 96%
    01:00 +21°C° 0 mm 1 m/S 752 mmHg 96%
    02:00 +21°C° 0 mm 1 m/S 752 mmHg 96%
    03:00 +21°C° 0 mm 1 m/S 752 mmHg 96%
    04:00 +21°C° 0 mm 1 m/S 752 mmHg 96%
    05:00 +21°C° 0 mm 1 m/S 753 mmHg 96%
    06:00 +21°C° 0 mm 1 m/S 753 mmHg 96%
    07:00 +23°C° 0,1 mm 2 m/S 753 mmHg 89%
    08:00 +25°C° 0,1 mm 3 m/S 754 mmHg 82%
    09:00 +27°C° 0,1 mm 3 m/S 754 mmHg 76%
    10:00 +28°C° 0,1 mm 4 m/S 754 mmHg 69%
    11:00 +29°C° 0,1 mm 4 m/S 753 mmHg 62%
    12:00 +30°C° 0,1 mm 4 m/S 753 mmHg 55%
    13:00 +30°C° 0 mm 5 m/S 753 mmHg 54%
    14:00 +30°C° 0 mm 5 m/S 752 mmHg 53%
    15:00 +30°C° 0 mm 5 m/S 751 mmHg 52%
    16:00 +28°C° 0 mm 4 m/S 752 mmHg 62%
    17:00 +26°C° 0 mm 4 m/S 752 mmHg 72%
    18:00 +24°C° 0 mm 3 m/S 752 mmHg 83%
    19:00 +24°C° 0 mm 3 m/S 752 mmHg 87%
    20:00 +23°C° 0 mm 2 m/S 752 mmHg 92%
    21:00 +21°C° 0 mm 2 m/S 753 mmHg 96%
    22:00 +21°C° 0,1 mm 2 m/S 753 mmHg 97%
    23:00 +21°C° 0,1 mm 2 m/S 752 mmHg 97%
    Mehr zeigen